• In Hungary
  • List of Countries
  • For 7 days
  • Water Temperature
  • Satellite Maps
  • Weather Map
  • News
  • Weather Widgets
  • user-avatar
    Login

    Hourly Weather Milzynek

    Today, 17 October, Tuesday

    Time Temperature Precipitation Wind Pressure Humidity
    00:00 +14°C° 0 mm 2 mps 759 mmHg 89%
    01:00 +14°C° 0 mm 2 mps 759 mmHg 90%
    02:00 +14°C° 0 mm 2 mps 759 mmHg 90%
    03:00 +14°C° 0 mm 2 mps 759 mmHg 91%
    04:00 +13°C° 0 mm 2 mps 759 mmHg 91%
    05:00 +13°C° 0 mm 2 mps 759 mmHg 91%
    06:00 +13°C° 0 mm 2 mps 759 mmHg 91%
    07:00 +13°C° 0 mm 2 mps 759 mmHg 91%
    08:00 +14°C° 0 mm 3 mps 759 mmHg 84%
    09:00 +17°C° 0 mm 3 mps 759 mmHg 77%
    10:00 +18°C° 0 mm 3 mps 759 mmHg 70%
    11:00 +20°C° 0 mm 3 mps 759 mmHg 65%
    12:00 +21°C° 0 mm 3 mps 759 mmHg 61%
    13:00 +22°C° 0 mm 4 mps 758 mmHg 56%
    14:00 +21°C° 0 mm 3 mps 758 mmHg 59%
    15:00 +21°C° 0 mm 3 mps 757 mmHg 61%
    16:00 +20°C° 0 mm 3 mps 757 mmHg 64%
    17:00 +19°C° 0 mm 3 mps 757 mmHg 67%
    18:00 +18°C° 0 mm 3 mps 757 mmHg 70%
    19:00 +17°C° 0 mm 3 mps 757 mmHg 73%
    20:00 +17°C° 0 mm 3 mps 756 mmHg 74%
    21:00 +16°C° 0 mm 3 mps 756 mmHg 74%
    22:00 +16°C° 0 mm 3 mps 756 mmHg 75%
    23:00 +16°C° 0 mm 2 mps 756 mmHg 77%

    Tomorrow, 18 October, Wednesday

    Time Temperature Precipitation Wind Pressure Humidity
    00:00 +15°C° 0 mm 2 mps 756 mmHg 79%
    01:00 +15°C° 0 mm 2 mps 756 mmHg 80%
    02:00 +14°C° 0 mm 2 mps 755 mmHg 83%
    03:00 +14°C° 0 mm 2 mps 755 mmHg 85%
    04:00 +13°C° 0 mm 2 mps 755 mmHg 88%
    05:00 +13°C° 0 mm 2 mps 755 mmHg 88%
    06:00 +13°C° 0 mm 2 mps 755 mmHg 89%
    07:00 +13°C° 0 mm 2 mps 755 mmHg 90%
    08:00 +15°C° 0 mm 2 mps 755 mmHg 84%
    09:00 +16°C° 0 mm 2 mps 755 mmHg 77%
    10:00 +18°C° 0 mm 2 mps 755 mmHg 71%
    11:00 +19°C° 0 mm 2 mps 754 mmHg 67%
    12:00 +20°C° 0 mm 2 mps 754 mmHg 63%
    13:00 +21°C° 0 mm 2 mps 754 mmHg 60%
    14:00 +21°C° 0 mm 1 mps 754 mmHg 62%
    15:00 +20°C° 0 mm 1 mps 753 mmHg 65%
    16:00 +20°C° 0 mm 1 mps 753 mmHg 68%
    17:00 +17°C° 0 mm 0 mps 753 mmHg 71%
    18:00 +16°C° 0 mm 0 mps 753 mmHg 74%
    19:00 +15°C° 0 mm 0 mps 753 mmHg 77%
    20:00 +15°C° 0 mm 0 mps 753 mmHg 78%
    21:00 +16°C° 0 mm 1 mps 753 mmHg 79%
    22:00 +15°C° 0 mm 1 mps 753 mmHg 81%
    23:00 +15°C° 0 mm 1 mps 753 mmHg 82%

    Day after tomorrow, 19 October, Thursday

    Time Temperature Precipitation Wind Pressure Humidity
    00:00 +14°C° 0 mm 1 mps 753 mmHg 84%
    01:00 +14°C° 0 mm 1 mps 753 mmHg 85%
    02:00 +14°C° 0 mm 1 mps 753 mmHg 86%
    03:00 +13°C° 0 mm 1 mps 753 mmHg 88%
    04:00 +13°C° 0 mm 1 mps 753 mmHg 89%
    05:00 +13°C° 0 mm 1 mps 753 mmHg 90%
    06:00 +13°C° 0 mm 1 mps 753 mmHg 91%
    07:00 +13°C° 0 mm 1 mps 753 mmHg 91%
    08:00 +14°C° 0 mm 1 mps 753 mmHg 85%
    09:00 +15°C° 0 mm 1 mps 753 mmHg 79%
    10:00 +18°C° 0 mm 1 mps 753 mmHg 73%
    11:00 +19°C° 0 mm 1 mps 753 mmHg 69%
    12:00 +20°C° 0 mm 1 mps 753 mmHg 66%
    13:00 +21°C° 0 mm 1 mps 753 mmHg 62%
    14:00 +20°C° 0 mm 1 mps 753 mmHg 65%
    15:00 +20°C° 0 mm 1 mps 753 mmHg 67%
    16:00 +17°C° 0 mm 0 mps 753 mmHg 70%
    17:00 +18°C° 0 mm 1 mps 753 mmHg 73%
    18:00 +16°C° 0 mm 1 mps 753 mmHg 76%
    19:00 +15°C° 0 mm 1 mps 753 mmHg 80%
    20:00 +15°C° 0 mm 1 mps 753 mmHg 82%
    21:00 +15°C° 0 mm 1 mps 753 mmHg 84%
    22:00 +14°C° 0 mm 1 mps 753 mmHg 86%
    23:00 +14°C° 0 mm 1 mps 753 mmHg 87%

    20 October, Friday

    Time Temperature Precipitation Wind Pressure Humidity
    00:00 +14°C° 0 mm 2 mps 753 mmHg 88%
    01:00 +13°C° 0 mm 2 mps 753 mmHg 89%
    02:00 +13°C° 0 mm 2 mps 753 mmHg 89%
    03:00 +13°C° 0 mm 2 mps 753 mmHg 89%
    04:00 +13°C° 0 mm 2 mps 753 mmHg 89%
    05:00 +13°C° 0 mm 2 mps 753 mmHg 88%
    06:00 +13°C° 0 mm 2 mps 753 mmHg 88%
    07:00 +13°C° 0 mm 2 mps 753 mmHg 87%
    08:00 +14°C° 0 mm 2 mps 753 mmHg 80%
    09:00 +16°C° 0 mm 2 mps 754 mmHg 73%
    10:00 +17°C° 0 mm 3 mps 754 mmHg 66%
    11:00 +18°C° 0 mm 3 mps 753 mmHg 62%
    12:00 +19°C° 0 mm 3 mps 753 mmHg 58%
    13:00 +20°C° 0 mm 3 mps 753 mmHg 54%
    14:00 +20°C° 0 mm 3 mps 753 mmHg 57%
    15:00 +19°C° 0 mm 3 mps 753 mmHg 60%
    16:00 +18°C° 0 mm 2 mps 753 mmHg 62%
    17:00 +18°C° 0 mm 2 mps 753 mmHg 64%
    18:00 +17°C° 0 mm 2 mps 753 mmHg 65%
    19:00 +16°C° 0 mm 2 mps 754 mmHg 66%
    20:00 +16°C° 0 mm 2 mps 754 mmHg 67%
    21:00 +14°C° 0 mm 3 mps 754 mmHg 69%
    22:00 +14°C° 0 mm 3 mps 754 mmHg 70%
    23:00 +14°C° 0 mm 3 mps 754 mmHg 72%

    21 October, Saturday

    Time Temperature Precipitation Wind Pressure Humidity
    00:00 +13°C° 0 mm 3 mps 754 mmHg 74%
    01:00 +13°C° 0 mm 3 mps 754 mmHg 76%
    02:00 +13°C° 0 mm 3 mps 753 mmHg 79%
    03:00 +12°C° 0 mm 3 mps 753 mmHg 82%
    04:00 +12°C° 0 mm 3 mps 753 mmHg 85%
    05:00 +12°C° 0 mm 3 mps 753 mmHg 87%
    06:00 +11°C° 0 mm 3 mps 753 mmHg 89%
    07:00 +11°C° 0 mm 3 mps 753 mmHg 90%
    08:00 +13°C° 0 mm 3 mps 753 mmHg 84%
    09:00 +14°C° 0 mm 4 mps 752 mmHg 78%
    10:00 +15°C° 0 mm 4 mps 752 mmHg 72%
    11:00 +17°C° 0 mm 4 mps 752 mmHg 68%
    12:00 +18°C° 0 mm 4 mps 751 mmHg 65%
    13:00 +19°C° 0 mm 4 mps 751 mmHg 61%
    14:00 +19°C° 0.1 mm 4 mps 751 mmHg 64%
    15:00 +18°C° 0.1 mm 3 mps 750 mmHg 68%
    16:00 +17°C° 0.1 mm 2 mps 750 mmHg 72%
    17:00 +17°C° 0.2 mm 2 mps 750 mmHg 73%
    18:00 +17°C° 0.2 mm 3 mps 750 mmHg 75%
    19:00 +16°C° 0.2 mm 3 mps 750 mmHg 76%
    20:00 +16°C° 0.9 mm 3 mps 750 mmHg 80%
    21:00 +16°C° 0.9 mm 3 mps 750 mmHg 83%
    22:00 +14°C° 0.9 mm 4 mps 750 mmHg 87%
    23:00 +14°C° 0.9 mm 3 mps 750 mmHg 88%

    22 October, Sunday

    Time Temperature Precipitation Wind Pressure Humidity
    00:00 +14°C° 0.9 mm 3 mps 750 mmHg 90%
    01:00 +13°C° 0.9 mm 3 mps 751 mmHg 91%
    02:00 +13°C° 0 mm 3 mps 751 mmHg 90%
    03:00 +13°C° 0 mm 3 mps 751 mmHg 90%
    04:00 +13°C° 0 mm 4 mps 751 mmHg 89%
    05:00 +13°C° 0 mm 4 mps 751 mmHg 87%
    06:00 +12°C° 0 mm 3 mps 751 mmHg 85%
    07:00 +12°C° 0 mm 3 mps 751 mmHg 83%
    08:00 +13°C° 0 mm 4 mps 751 mmHg 78%
    09:00 +13°C° 0 mm 4 mps 751 mmHg 72%
    10:00 +13°C° 0 mm 5 mps 752 mmHg 67%
    11:00 +13°C° 0 mm 4 mps 751 mmHg 65%
    12:00 +13°C° 0 mm 3 mps 751 mmHg 63%
    13:00 +13°C° 0 mm 3 mps 751 mmHg 62%
    14:00 +14°C° 0.1 mm 2 mps 751 mmHg 65%
    15:00 +13°C° 0.1 mm 2 mps 751 mmHg 69%
    16:00 +12°C° 0.1 mm 2 mps 751 mmHg 72%
    17:00 +12°C° 0.1 mm 2 mps 751 mmHg 75%
    18:00 +12°C° 0.1 mm 2 mps 751 mmHg 77%
    19:00 +10°C° 0.1 mm 2 mps 751 mmHg 80%
    20:00 +10°C° 0 mm 2 mps 751 mmHg 81%
    21:00 +10°C° 0 mm 2 mps 751 mmHg 82%
    22:00 +10°C° 0 mm 2 mps 751 mmHg 83%
    23:00 +9°C° 0 mm 2 mps 751 mmHg 84%
    Show more